Weather WX

World > North America > United States > Oregon

Bridal Veil, Oregon Regional Weather

Lat: 45.55N, Lon: 122.18W
Wx Zone: ORZ009
Feedback

Bridal Veil, OR Regional Weather

Expires:201906182100;;695460
ASUS46 KPQR 182010
RWROR 

OREGON REGIONAL WEATHER ROUNDUP
NATIONAL WEATHER SERVICE PORTLAND OR
100 PM PDT TUE JUN 18 2019

NOTE: "FAIR" INDICATES FEW OR NO CLOUDS BELOW 12,000 FEET WITH
NO SIGNIFICANT WEATHER AND/OR OBSTRUCTIONS TO VISIBILITY.


ORZ001>013-182100-
NORTHWEST OREGON

  
CITY           SKY/WX    TMP DP  RH WIND       PRES   REMARKS
ASTORIA        CLOUDY    62  49  62 NW13      30.30S                  
TILLAMOOK      SUNNY     64  48  55 NW21      30.30R                  
PORTLAND       MOSUNNY   70  48  45 NW10      30.24F                  
VANCOUVER WA   SUNNY     69  49  48 NW13      30.23F                  
SCAPPOOSE      PTSUNNY   69  49  48 NW8       30.24R                  
HILLSBORO      MOSUNNY   68  48  48 NW9       30.23F                  
AURORA         CLOUDY    71  51  49 N6        30.23F                  
MCMINNVILLE    PTSUNNY   73  52  47 VRB6      30.21F                  
SALEM          PTSUNNY   72  51  47 N6        30.21F                  
CORVALLIS      PTSUNNY   72  54  53 N8        30.22F                  
EUGENE         PTSUNNY   74  54  49 N14       30.22S                  
$$


SKY/WX - Weather  TMP - Temperature  DP - Dew Point  RH - Relative Humidity
WIND - Wind Direction/Speed PRES - Barometric Pressure VSB - Visibility
WCI - Wind Chill Index E13G22 Wind - East Wind 13 mph/Gusts of 22 mph